Jacksonville Craig, FL

11:49 PM EDT on March 28, 2017 (GMT -0400)
Craig Municipal

Weather History for KCRG - December, 2013

Change the Weather History Date:

Saturday, December 14, 2013

  Actual Average Record
Temperature  
Mean Temperature 67 °F -  
Max Temperature 79 °F 63 °F 82 °F (2000)
Min Temperature 55 °F 45 °F 24 °F (2010)
Cooling Degree Days 2    
Growing Degree Days 17 (Base 50)    
Moisture  
Dew Point 62 °F    
Average Humidity 80    
Maximum Humidity 90    
Minimum Humidity 62    
Precipitation  
Precipitation 0.40 in - - ()
Sea Level Pressure  
Sea Level Pressure 30.00 in    
Wind  
Wind Speed 6 mph (South)    
Max Wind Speed 17 mph    
Max Gust Speed 25 mph    
Visibility 10 miles    
Events Rain    
Averages and records for this station are not official NWS values.
T = Trace of Precipitation, MM = Missing Value Source: NWS Daily Summary

Daily Weather History Graph

Daily Weather History Graph

Search for Another Location

Airport or City:

Trip Planner

Search our weather history database for the weather conditions in past years. The results will help you decide how hot, cold, wet, or windy it might be!

Date:

Astronomy

Dec. 14, 2013 Rise Set
Actual Time 7:14 AM EST 5:27 PM EST
Civil Twilight 6:48 AM EST 5:53 PM EST
Nautical Twilight 6:18 AM EST 6:23 PM EST
Astronomical Twilight 5:48 AM EST 6:52 PM EST
Moon 3:41 PM EST (12/14) 4:41 AM EST (12/14)
Length of Visible Light 11h 05m
Length of Day
10h 12m
Waxing Gibbous, 93% of the Moon is Illuminated
Dec 14
Waxing Gibbous
Dec 17
Full
Dec 25
Last Quarter
Jan 1
New
Jan 7
First Quarter

Hourly Weather History & Observations

Time (EST) Temp. Dew Point Humidity Pressure Visibility Wind Dir Wind Speed Gust Speed Precip Events Conditions
12:53 AM 55.0 °F 52.0 °F 89% 30.14 in 8.0 mi Calm Calm - N/A   Clear
1:53 AM 55.0 °F 51.1 °F 86% 30.13 in 10.0 mi Calm Calm - N/A   Clear
2:53 AM 55.9 °F 52.0 °F 87% 30.12 in 10.0 mi Calm Calm - N/A   Overcast
3:53 AM 57.0 °F 53.1 °F 87% 30.11 in 10.0 mi Calm Calm - N/A   Mostly Cloudy
4:53 AM 57.0 °F 53.1 °F 87% 30.09 in 10.0 mi Calm Calm - N/A   Partly Cloudy
5:53 AM 59.0 °F 55.0 °F 87% 30.09 in 10.0 mi Calm Calm - N/A   Mostly Cloudy
6:53 AM 60.1 °F 57.0 °F 90% 30.10 in 10.0 mi SE 3.5 mph - N/A   Mostly Cloudy
7:53 AM 64.0 °F 60.1 °F 87% 30.10 in 10.0 mi SSE 5.8 mph - N/A   Clear
8:53 AM 69.1 °F 62.1 °F 78% 30.11 in 10.0 mi SSE 6.9 mph - N/A   Overcast
9:53 AM 71.1 °F 63.0 °F 75% 30.09 in 10.0 mi SSE 12.7 mph - N/A   Overcast
10:53 AM 73.9 °F 64.0 °F 71% 30.06 in 10.0 mi South 11.5 mph - N/A   Overcast
11:53 AM 78.1 °F 66.0 °F 66% 30.02 in 10.0 mi South 15.0 mph 23.0 mph 0.00 in   Scattered Clouds
12:28 PM 79.0 °F 64.9 °F 62% 29.99 in 10.0 mi South 11.5 mph - N/A   Mostly Cloudy
12:53 PM 78.1 °F 64.9 °F 64% 29.97 in 10.0 mi South 12.7 mph 21.9 mph N/A   Overcast
1:53 PM 78.1 °F 64.9 °F 64% 29.96 in 10.0 mi SSW 13.8 mph 24.2 mph N/A   Overcast
2:03 PM 78.1 °F 64.9 °F 64% 29.95 in 10.0 mi SSW 17.3 mph 25.3 mph N/A   Overcast
2:28 PM 78.1 °F 64.9 °F 64% 29.95 in 10.0 mi SSW 12.7 mph - N/A   Overcast
2:53 PM 78.1 °F 66.0 °F 66% 29.95 in 10.0 mi SSW 12.7 mph - N/A   Mostly Cloudy
3:53 PM 77.0 °F 66.0 °F 69% 29.93 in 10.0 mi South 10.4 mph - N/A   Mostly Cloudy
4:53 PM 73.0 °F 66.9 °F 81% 29.95 in 10.0 mi SSW 16.1 mph 21.9 mph 0.03 in Rain Light Rain
5:53 PM 71.1 °F 66.9 °F 87% 29.95 in 9.0 mi SSW 8.1 mph - 0.02 in Rain Light Rain
6:53 PM 70.0 °F 66.9 °F 90% 29.92 in 10.0 mi South 5.8 mph - 0.03 in Rain Light Rain
7:28 PM 70.0 °F 66.9 °F 90% 29.92 in 10.0 mi South 5.8 mph - 0.01 in Rain Light Rain
7:53 PM 71.1 °F 66.9 °F 87% 29.93 in 10.0 mi South 6.9 mph - 0.01 in Rain Light Rain
8:53 PM 70.0 °F 66.9 °F 90% 29.92 in 10.0 mi South 5.8 mph - 0.02 in Rain Light Rain
9:53 PM 71.1 °F 66.9 °F 87% 29.91 in 10.0 mi SSW 16.1 mph - 0.08 in Rain Light Rain
10:53 PM 71.1 °F 66.9 °F 87% 29.90 in 8.0 mi SSW 12.7 mph - 0.12 in Rain Rain
11:24 PM 70.0 °F 66.9 °F 90% 29.89 in 7.0 mi South 12.7 mph - 0.06 in Rain Rain
11:53 PM 69.1 °F 64.9 °F 87% 29.90 in 10.0 mi SSW 11.5 mph - 0.09 in Rain Light Rain